Home > Weather > Rasht > Past weeks

Flag for Iran Weather for the Past 2 Weeks in Rasht, Iran

Now
34 °F

Passing clouds.


Feels Like: 34 °F
Forecast: 31 / 46 °F
Wind: No wind

Location: Rasht Airport

Current Time: Feb 10, 2016 at 3:09:38 AM

Latest Report: Feb 10, 2016 at 2:30 AM


Visibility: N/A

Pressure: 30.51 "Hg

Humidity: 100%

Dew point: 34 °F

Location of RashtLocation

Historic Weather in Rasht — Graph

°F

Rasht Temperature Yesterday

Maximum temperature yesterday: 41 °F (at 12:30 PM)
Minimum temperature yesterday: 32 °F (at 2:30 AM)
Average temperature yesterday: 38 °F

High & Low Weather Summary for the Past Weeks

 TemperatureHumidityPressure
High82 °F (Feb 6, 12:30 PM)100% (Jan 26, 2:30 AM)30.57 "Hg (Jan 26, 2:30 AM)
Low23 °F (Jan 29, 2:30 AM)9% (Feb 6, 12:30 PM)29.74 "Hg (Feb 6, 2:30 PM)
Average44 °F83%30.23 "Hg
* Reported Jan 26 1:30 AM — Feb 10 1:30 AM, Rasht, Weather by CustomWeather, © 2016

Note: Actual official high and low records may vary slightly from our data, if they occured in-between our weather recording intervals... More about our weather records

Advertising

Rasht Weather History for the Previous 24 Hours

 ConditionsComfort  
Time TempWeatherWind HumidityBarometerVisibility
1:30 AM
Wed, Feb 10
36 °FPassing clouds.No wind100%30.54 "HgN/A
12:30 AM36 °FPassing clouds.No wind100%30.54 "HgN/A
11:30 PM
Tue, Feb 9
37 °FPassing clouds.No wind93%30.54 "HgN/A
10:30 PM37 °FClear.No wind93%30.54 "Hg10 mi
9:30 PM37 °FPassing clouds.No wind93%30.54 "HgN/A
8:30 PM39 °FPassing clouds.No wind93%30.54 "HgN/A
8:00 PM39 °FPassing clouds.No wind93%30.54 "HgN/A
7:30 PM39 °FPassing clouds.No wind93%30.54 "HgN/A
7:00 PM39 °FPassing clouds.No wind87%30.54 "HgN/A
6:30 PM39 °FPassing clouds.No wind87%30.54 "HgN/A
6:00 PM41 °FScattered clouds.No wind87%30.54 "HgN/A
5:30 PM41 °FScattered clouds.No wind87%30.54 "HgN/A
5:00 PM41 °FScattered clouds.No wind87%30.54 "HgN/A
4:30 PM41 °FScattered clouds.No wind87%30.54 "HgN/A
4:00 PM39 °FBroken clouds.No wind87%30.54 "HgN/A
3:30 PM39 °FBroken clouds.2 mph87%30.54 "HgN/A
3:00 PM39 °FBroken clouds.5 mph93%30.54 "Hg4 mi
2:00 PM39 °FBroken clouds.7 mph93%30.54 "Hg4 mi
1:30 PM39 °FSprinkles. Broken clouds.9 mph93%30.54 "Hg2 mi
1:00 PM41 °FBroken clouds.7 mph87%30.54 "Hg4 mi
12:30 PM41 °FBroken clouds.7 mph87%30.54 "Hg5 mi
11:30 AM37 °FBroken clouds.5 mph93%30.57 "Hg4 mi
11:00 AM36 °FFog.7 mph100%30.57 "Hg3 mi
10:30 AM36 °FDrizzle. Mostly cloudy.9 mph100%30.57 "Hg2 mi
10:00 AM36 °FDrizzle. Mostly cloudy.7 mph93%30.57 "Hg2 mi
9:30 AM36 °FFog.7 mph93%30.57 "Hg2 mi
9:00 AM37 °FLight rain. Mostly cloudy.5 mph93%30.57 "Hg4 mi
8:00 AM36 °FLight rain. Mostly cloudy.5 mph93%30.54 "Hg4 mi
7:00 AM36 °FMostly cloudy.7 mph93%30.54 "Hg5 mi
6:30 AM36 °FMostly cloudy.7 mph93%30.54 "Hg5 mi
5:30 AM36 °FMostly cloudy.5 mph93%30.51 "Hg5 mi
4:30 AM36 °FMostly cloudy.9 mph93%30.54 "Hg5 mi
3:30 AM34 °FLight rain. Mostly cloudy.5 mph93%30.54 "Hg4 mi
Weather by CustomWeather, © 2016

See weather overviewHow to use our weather pages